DW8913 Weather Reports


Display with metric or nautical units.
time (UTC)temp
F
wind
direction
speed
MPH
gust
MPH
rain 1hr
in
rain 24hr
in
rain mn
in
humidity
%
barometer
mb
20260903234520 81 354 0.0 0.0 0.00 1.10 1.10 80 1012.4
20260903233126 82 231 0.0 1.0 0.00 1.10 1.10 78 1012.4
20260903231536 83 137 0.0 1.0 0.00 1.10 1.10 77 1012.3
20260903230001 83 188 0.0 2.0 0.00 1.10 1.10 75 1012.1
20260903224547 84 355 0.0 1.0 0.00 1.10 1.10 74 1012.0
20260903223024 85 168 0.0 3.0 0.00 1.10 1.10 74 1012.0
20260903221559 85 64 0.0 3.0 0.00 1.10 1.10 74 1012.1
20260903220025 85 186 1.0 3.0 0.00 1.10 1.10 75 1012.0
20260903214606 85 85 0.0 5.0 0.00 1.10 1.10 75 1012.2
20260903213044 85 78 1.0 5.0 0.00 1.10 1.10 76 1012.1
20260903211612 85 179 1.0 4.0 0.00 1.10 1.10 76 1012.3
20260903210057 86 164 0.0 4.0 0.00 1.10 1.10 76 1012.3
20260903204506 86 72 1.0 4.0 0.00 1.11 1.10 75 1012.5
20260903203041 85 131 1.0 5.0 0.00 1.11 1.10 76 1012.3
20260903201515 86 68 1.0 6.0 0.00 1.11 1.10 74 1012.5
20260903200049 86 169 1.0 4.0 0.00 1.11 1.10 74 1012.7
20260903194534 86 53 0.0 7.0 0.00 1.12 1.10 72 1013.1
20260903193103 87 72 1.0 5.0 0.00 1.12 1.10 72 1013.2
20260903191529 87 354 0.0 4.0 0.00 1.12 1.10 74 1013.5
20260903190110 87 194 1.0 4.0 0.00 1.12 1.10 73 1013.5
20260903184548 87 352 1.0 3.0 0.00 1.12 1.10 73 1013.6
20260903183009 86 152 1.0 4.0 0.00 1.12 1.10 74 1013.8
20260903181550 87 167 2.0 5.0 0.00 1.12 1.10 73 1013.9
20260903180026 86 70 1.0 6.0 0.00 1.12 1.10 74 1013.7
20260903174602 87 166 1.0 4.0 0.00 1.12 1.10 74 1014.1
20260903173034 86 36 1.0 4.0 0.00 1.12 1.10 76 1014.6
20260903171505 85 159 0.0 4.0 0.00 1.12 1.10 78 1014.8
20260903170053 85 138 1.0 4.0 0.00 1.12 1.10 76 1015.0
20260903164510 86 117 1.0 4.0 0.00 1.12 1.10 74 1015.2
20260903163056 86 88 1.0 5.0 0.00 1.12 1.10 75 1015.1
20260903161531 85 165 4.0 9.0 0.00 1.12 1.10 74 1014.9
20260903160109 85 169 1.0 9.0 0.00 1.12 1.10 76 1015.1
20260903154538 84 161 3.0 8.0 0.00 1.12 1.10 76 1015.0
20260903153006 83 91 2.0 10.0 0.00 1.12 1.10 79 1014.9
20260903151549 83 66 2.0 9.0 0.00 1.12 1.10 79 1014.6
20260903150019 82 142 3.0 9.0 0.00 1.12 1.10 81 1014.4
20260903144554 81 184 2.0 8.0 0.00 1.12 1.10 83 1014.4
20260903143020 79 158 3.0 6.0 0.00 1.12 1.10 87 1014.5
20260903141611 77 159 3.0 6.0 0.00 1.12 1.10 91 1014.6
20260903140038 75 69 1.0 8.0 0.01 1.12 1.10 91 1014.3
20260903134501 74 140 2.0 7.0 0.02 1.12 1.10 92 1014.4
20260903133040 74 194 2.0 7.0 0.02 1.12 1.10 92 1014.6
20260903131510 74 97 0.0 6.0 0.02 1.12 1.10 92 1015.2
20260903130054 74 176 1.0 5.0 0.02 1.11 1.09 93 1014.5
20260903124517 74 48 0.0 0.0 0.01 1.10 1.08 94 1016.1
20260903123106 74 77 0.0 3.0 0.01 1.10 1.08 94 1016.8
20260903121549 74 138 1.0 5.0 0.01 1.10 1.08 94 1016.6
20260903120112 73 155 0.0 2.0 0.00 1.09 1.07 94 1016.8
20260903114543 73 193 0.0 0.0 0.00 1.09 1.07 94 1016.7
20260903113013 72 198 0.0 0.0 0.00 1.09 1.07 94 1016.5
20260903111558 72 189 0.0 0.0 0.01 1.09 1.07 95 1016.8
20260903110033 72 189 0.0 0.0 0.08 1.09 1.07 95 1016.7
20260903104503 72 216 0.0 0.0 0.26 1.09 1.07 94 1017.1
20260903103044 72 224 0.0 0.0 0.27 1.09 1.07 94 1017.1
20260903101513 72 8 0.0 3.0 0.26 1.08 1.06 94 1017.0
20260903100054 73 13 3.0 7.0 0.19 1.01 0.99 94 1017.5
20260903094527 73 233 0.0 4.0 0.01 0.83 0.81 94 1016.6
20260903093108 74 6 0.0 0.0 0.00 0.82 0.80 94 1016.5
20260903091549 74 200 0.0 0.0 0.00 0.82 0.80 94 1016.0
20260903090007 74 322 0.0 0.0 0.07 0.82 0.80 94 1016.1
20260903084549 74 55 0.0 0.0 0.14 0.82 0.80 94 1016.2
20260903083017 74 203 0.0 1.0 0.30 0.82 0.80 94 1015.8
20260903081558 73 183 0.0 1.0 0.32 0.82 0.80 94 1016.1
20260903080026 73 32 0.0 2.0 0.73 0.75 0.73 94 1016.3
20260903074609 73 214 0.0 7.0 0.66 0.68 0.66 94 1016.5
20260903073037 74 233 0.0 5.0 0.50 0.52 0.50 93 1016.7
20260903071613 74 159 2.0 9.0 0.48 0.50 0.48 93 1016.7
20260903070047 76 37 0.0 1.0 0.00 0.02 0.00 92 1017.3
20260903064515 76 158 1.0 2.0 0.00 0.02 0.00 92 1015.8
20260903063101 76 167 0.0 1.0 0.00 0.02 0.00 92 1015.7
20260903061529 76 21 0.0 2.0 0.00 0.02 0.00 92 1015.9
20260903060123 76 153 0.0 0.0 0.00 0.02 0.00 92 1016.0
20260903054533 75 187 0.0 0.0 0.00 0.02 0.00 92 1016.1
20260903053001 75 167 0.0 2.0 0.00 0.02 0.00 92 1016.3
20260903051544 75 193 0.0 1.0 0.00 0.02 0.00 91 1016.2
20260903050018 76 148 0.0 0.0 0.00 0.02 0.00 91 1016.5
20260903044546 76 212 0.0 0.0 0.00 0.02 0.00 91 1016.7
20260903043024 76 151 0.0 0.0 0.00 0.02 0.00 91 1016.7
20260903041558 76 193 0.0 0.0 0.00 0.02 0.00 91 1016.7
20260903040026 76 195 0.0 0.0 0.00 0.02 0.00 91 1017.2
20260903034602 76 214 0.0 1.0 0.00 0.02 0.02 91 1017.0
20260903033033 76 214 0.0 1.0 0.00 0.02 0.02 91 1017.1
20260903031502 76 129 0.0 1.0 0.00 0.02 0.02 91 1017.0
20260903030051 76 32 0.0 3.0 0.00 0.02 0.02 90 1016.6
20260903024522 76 230 0.0 4.0 0.00 0.09 0.02 90 1016.9
20260903023100 75 208 0.0 3.0 0.00 0.09 0.02 90 1017.0
20260903021521 75 356 0.0 4.0 0.00 0.09 0.02 90 1017.0
20260903020058 75 201 1.0 3.0 0.00 0.09 0.02 90 1017.0
20260903014527 75 197 1.0 5.0 0.00 0.09 0.02 90 1017.1
20260903013126 75 358 1.0 4.0 0.00 0.09 0.02 89 1016.9
20260903011555 75 212 0.0 2.0 0.00 0.09 0.02 89 1017.2
20260903010008 75 224 0.0 3.0 0.00 0.09 0.02 89 1017.3
20260903004549 75 196 1.0 5.0 0.00 0.09 0.02 89 1017.3
20260903003015 75 7 0.0 4.0 0.00 0.09 0.02 89 1016.9
20260903001557 75 181 0.0 5.0 0.00 0.09 0.02 89 1016.8
20260903000040 75 219 0.0 5.0 0.00 0.09 0.02 89 1017.2